Location: *
(51.4660°N, 0.3360°W)
Time: 08:33:49
(UTC+00:00)

Resurs 01 Rocket - Pass Details

Date: 19 September 2019
Orbit: 635 x 644 km, 98.0° (Epoch: 17 October)

Event Time Altitude Azimuth Distance (km) Brightness Sun altitude
Exits shadow 19:29:23 20° 119° (ESE) 1,477 2.9 -13.3°
Maximum altitude 19:31:50 36° 66° (ENE) 1,024 2.3 -13.7°
Drops below altitude 10° 19:35:55 10° 0° (N) 2,052 4.5 -14.3°
Sets 19:38:15 0° 352° (N) 2,967 5.5 -14.6°
